Back to catalog

ATLAS CENTAUR 2 DEB

AliveLEO
NORAD 2886·DEBRIS·🇺🇸 United States

Launched Nov 27, 1963 from Cape Canaveral Space Force Station

Loading…

Next Passes (next 24 hours)

TLE

FreshSource: Space-Track

Epoch: Sep 14, 2026, 07:02 UTC

1 02886U 63047K   26257.29325372  .00000152  00000-0  52164-4 0  9999
2 02886  29.8734 111.8373 0643217 213.1342 142.7312 13.30008052888086

Track ATLAS CENTAUR 2 DEB in real time with AllMySat

Download on the App Store